Leadville, CO

11:10 AM MDT on March 28, 2017 (GMT -0600)
Lake County

Weather History for KLXV - February, 2014

Change the Weather History Date:

Tuesday, February 25, 2014

  Actual Average Record
Temperature  
Mean Temperature 32 °F -  
Max Temperature 39 °F 33 °F 50 °F (1988)
Min Temperature 25 °F 6 °F -11 °F (1979)
Degree Days  
Heating Degree Days 33 45  
Month to date heating degree days 1152 1177  
Since 1 July heating degree days 7391 7574  
Cooling Degree Days 0 0  
Month to date cooling degree days 0 0  
Year to date cooling degree days 0 0  
Moisture  
Dew Point 12 °F    
Average Humidity 45    
Maximum Humidity 58    
Minimum Humidity 32    
Precipitation  
Precipitation T in 0.03 in 0.32 in (2003)
Month to date precipitation 1.09 0.62  
Year to date precipitation 4.05 1.24  
Sea Level Pressure  
Sea Level Pressure 29.85 in    
Wind  
Wind Speed 10 mph (NNW)    
Max Wind Speed 29 mph    
Max Gust Speed 37 mph    
Visibility 10 miles    
Events Snow    
T = Trace of Precipitation, MM = Missing Value Source: NWS Daily Summary

Daily Weather History Graph

Daily Weather History Graph

Search for Another Location

Airport or City:

Trip Planner

Search our weather history database for the weather conditions in past years. The results will help you decide how hot, cold, wet, or windy it might be!

Date:

Astronomy

Feb. 25, 2014 Rise Set
Actual Time 6:43 AM MST 5:53 PM MST
Civil Twilight 6:16 AM MST 6:20 PM MST
Nautical Twilight 5:45 AM MST 6:51 PM MST
Astronomical Twilight 5:14 AM MST 7:22 PM MST
Moon 3:39 AM MST (2/25) 2:03 PM MST (2/25)
Length of Visible Light 12h 03m
Length of Day
11h 09m
Waning Crescent, 17% of the Moon is Illuminated
Feb 25
Waning Crescent
Mar 1
New
Mar 8
First Quarter
Mar 16
Full
Mar 23
Last Quarter

Hourly Weather History & Observations

Time (MST) Temp. Windchill Dew Point Humidity Pressure Visibility Wind Dir Wind Speed Gust Speed Precip Events Conditions
12:53 AM 26.1 °F 20.5 °F 7.0 °F 44% 29.94 in 10.0 mi North 4.6 mph - N/A   Overcast
1:53 AM 28.0 °F 20.8 °F 7.0 °F 41% 29.92 in 10.0 mi NNW 6.9 mph - N/A   Overcast
2:53 AM 30.0 °F 25.2 °F 5.0 °F 35% 29.87 in 10.0 mi NE 4.6 mph - N/A   Overcast
3:53 AM 28.9 °F 20.4 °F 5.0 °F 36% 29.86 in 10.0 mi NNE 9.2 mph - N/A   Overcast
4:53 AM 30.9 °F 22.8 °F 5.0 °F 33% 29.85 in 10.0 mi North 9.2 mph 23.0 mph N/A   Overcast
5:53 AM 30.0 °F 20.0 °F 6.1 °F 36% 29.89 in 10.0 mi North 12.7 mph 17.3 mph N/A   Overcast
6:53 AM 30.0 °F 21.7 °F 6.1 °F 36% 29.88 in 10.0 mi North 9.2 mph - N/A   Overcast
7:53 AM 32.0 °F 26.4 °F 10.9 °F 42% 29.88 in 10.0 mi North 5.8 mph - N/A   Overcast
8:53 AM 32.0 °F 26.4 °F 12.0 °F 44% 29.86 in 10.0 mi North 5.8 mph - N/A   Overcast
9:53 AM 33.1 °F 26.9 °F 12.9 °F 43% 29.88 in 10.0 mi NNW 6.9 mph - N/A   Overcast
10:53 AM 33.1 °F 24.4 °F 12.9 °F 43% 29.88 in 10.0 mi NNW 11.5 mph 24.2 mph N/A   Overcast
11:53 AM 35.1 °F 25.9 °F 12.9 °F 40% 29.84 in 10.0 mi NNW 13.8 mph 18.4 mph N/A   Overcast
12:53 PM 34.0 °F 23.0 °F 12.0 °F 40% 29.83 in 10.0 mi WNW 18.4 mph 35.7 mph N/A   Overcast
1:53 PM 39.0 °F 30.3 °F 12.0 °F 33% 29.75 in 10.0 mi WNW 16.1 mph 25.3 mph N/A   Mostly Cloudy
2:53 PM 37.0 °F 28.5 °F 12.9 °F 37% 29.75 in 10.0 mi NW 13.8 mph 36.8 mph N/A   Clear
3:53 PM 36.0 °F 26.3 °F 12.9 °F 39% 29.76 in 10.0 mi WNW 16.1 mph 32.2 mph N/A   Clear
4:53 PM 35.1 °F 24.8 °F 12.0 °F 39% 29.76 in 10.0 mi WNW 17.3 mph 27.6 mph N/A   Clear
5:53 PM 32.0 °F 23.0 °F 12.0 °F 44% 29.81 in 10.0 mi NW 11.5 mph 23.0 mph N/A   Scattered Clouds
6:53 PM 32.0 °F 20.5 °F 12.9 °F 45% 29.82 in 10.0 mi NW 18.4 mph 26.5 mph N/A   Overcast
7:53 PM 28.9 °F 17.3 °F 19.0 °F 67% 29.85 in 6.0 mi NNW 16.1 mph 28.8 mph 0.00 in Snow Light Snow
8:44 PM 28.0 °F 19.3 °F 19.0 °F 69% 30.04 in 9.0 mi NE 9.2 mph - 0.00 in   Mostly Cloudy
8:53 PM 28.0 °F 21.7 °F 19.0 °F 69% 29.86 in 10.0 mi Variable 5.8 mph - 0.00 in   Mostly Cloudy
9:53 PM 28.0 °F 22.8 °F 16.0 °F 61% 29.85 in 10.0 mi Variable 4.6 mph - N/A   Mostly Cloudy
10:53 PM 28.9 °F 22.8 °F 16.0 °F 58% 29.84 in 10.0 mi NNW 5.8 mph - N/A   Mostly Cloudy
11:53 PM 27.0 °F 21.6 °F 19.0 °F 72% 29.84 in 7.0 mi North 4.6 mph - 0.00 in Snow Light Snow